Greenville, AL

9:28 AM CDT on September 29, 2016 (GMT -0500)
Greenville Municipal

Weather History for KPRN - December, 2014

Change the Weather History Date:

Tuesday, December 30, 2014

  Actual Average Record
Temperature  
Mean Temperature 46 °F -  
Max Temperature 54 °F 58 °F 82 °F (1984)
Min Temperature 37 °F 38 °F 13 °F (1983)
Degree Days  
Heating Degree Days 18    
Moisture  
Dew Point 44 °F    
Average Humidity 82    
Maximum Humidity 96    
Minimum Humidity 57    
Precipitation  
Precipitation 0.01 in - - ()
Sea Level Pressure  
Sea Level Pressure 30.28 in    
Wind  
Wind Speed 7 mph (North)    
Max Wind Speed 14 mph    
Max Gust Speed -    
Visibility 8 miles    
Events      
Averages and records for this station are not official NWS values.
T = Trace of Precipitation, MM = Missing Value Source: NWS Daily Summary

Daily Weather History Graph

Daily Weather History Graph

Search for Another Location

Airport or City:

Trip Planner

Search our weather history database for the weather conditions in past years. The results will help you decide how hot, cold, wet, or windy it might be!

Date:

Astronomy

Dec. 30, 2014 Rise Set
Actual Time 6:46 AM CST 4:52 PM CST
Civil Twilight 6:19 AM CST 5:18 PM CST
Nautical Twilight 5:48 AM CST 5:49 PM CST
Astronomical Twilight 5:19 AM CST 6:19 PM CST
Moon 12:52 PM CST (12/30) 1:21 AM CST (12/30)
Length of Visible Light 10h 59m
Length of Day
10h 05m
Waxing Gibbous, 71% of the Moon is Illuminated
Dec 30
Waxing Gibbous
Jan 4
Full
Jan 13
Last Quarter
Jan 20
New
Jan 26
First Quarter

Hourly Weather History & Observations

Time (CST) Temp. Windchill Dew Point Humidity Pressure Visibility Wind Dir Wind Speed Gust Speed Precip Events Conditions
12:56 AM 53.1 °F - 52.0 °F 96% 30.14 in 8.0 mi North 4.6 mph - N/A   Overcast
1:56 AM 54.0 °F - 52.0 °F 93% 30.17 in 6.0 mi North 3.5 mph - 0.01 in   Overcast
2:56 AM 54.0 °F - 52.0 °F 93% 30.17 in 5.0 mi North 3.5 mph - N/A   Overcast
3:12 AM 53.6 °F - 51.8 °F 94% 30.18 in 2.0 mi NNW 3.5 mph - N/A   Overcast
3:28 AM 53.6 °F - 51.8 °F 94% 30.18 in 7.0 mi Variable 3.5 mph - N/A   Overcast
3:56 AM 53.1 °F - 51.1 °F 93% 30.19 in 8.0 mi NNW 6.9 mph - N/A   Overcast
4:09 AM 53.6 °F - 51.8 °F 94% 30.20 in 1.8 mi North 8.1 mph - N/A   Overcast
4:37 AM 53.6 °F - 51.8 °F 94% 30.20 in 3.0 mi Variable 5.8 mph - N/A   Overcast
4:56 AM 53.1 °F - 51.1 °F 93% 30.20 in 10.0 mi NNW 6.9 mph - N/A   Overcast
5:56 AM 52.0 °F - 50.0 °F 93% 30.23 in 7.0 mi North 12.7 mph - N/A   Overcast
6:56 AM 51.1 °F - 48.9 °F 92% 30.26 in 5.0 mi NNW 8.1 mph - N/A   Overcast
7:56 AM 50.0 °F - 48.0 °F 93% 30.30 in 10.0 mi North 10.4 mph - N/A   Overcast
8:56 AM 48.0 °F - 45.0 °F 89% 30.32 in 10.0 mi NNW 9.2 mph - N/A   Overcast
9:56 AM 48.0 °F - 45.0 °F 89% 30.34 in 10.0 mi North 11.5 mph - N/A   Overcast
10:56 AM 48.0 °F - 43.0 °F 83% 30.34 in 10.0 mi North 13.8 mph - N/A   Overcast
11:10 AM 48.2 °F - 42.8 °F 82% 30.34 in 10.0 mi North 10.4 mph - N/A   Overcast
12:56 PM 48.9 °F - 42.1 °F 77% 30.30 in 10.0 mi NNW 11.5 mph - N/A   Overcast
1:25 PM 48.2 °F - 41.0 °F 76% 30.29 in 10.0 mi North 9.2 mph - N/A   Overcast
1:56 PM 50.0 °F - 41.0 °F 71% 30.29 in 10.0 mi North 5.8 mph - N/A   Overcast
2:09 PM 51.8 °F - 41.0 °F 67% 30.29 in 10.0 mi North 6.9 mph - N/A   Mostly Cloudy
2:26 PM 53.6 °F - 39.2 °F 58% 30.28 in 10.0 mi North 11.5 mph - N/A   Scattered Clouds
2:56 PM 54.0 °F - 39.0 °F 57% 30.29 in 10.0 mi North 6.9 mph - N/A   Clear
3:56 PM 53.1 °F - 37.9 °F 57% 30.32 in 10.0 mi North 10.4 mph - N/A   Clear
4:56 PM 50.0 °F - 39.0 °F 66% 30.32 in 10.0 mi North 5.8 mph - N/A   Clear
5:56 PM 46.9 °F - 39.0 °F 74% 30.33 in 10.0 mi North 5.8 mph - N/A   Clear
6:56 PM 45.0 °F 40.1 °F 37.9 °F 76% 30.35 in 10.0 mi North 9.2 mph - N/A   Clear
7:56 PM 43.0 °F 38.8 °F 37.0 °F 80% 30.37 in 10.0 mi North 6.9 mph - N/A   Clear
8:56 PM 41.0 °F 35.8 °F 36.0 °F 82% 30.38 in 10.0 mi North 8.1 mph - N/A   Clear
9:56 PM 39.9 °F 36.7 °F 35.1 °F 83% 30.40 in 10.0 mi NNE 4.6 mph - N/A   Clear
10:56 PM 39.0 °F 34.0 °F 34.0 °F 82% 30.40 in 10.0 mi North 6.9 mph - N/A   Clear
11:56 PM 37.9 °F 33.5 °F 34.0 °F 86% 30.39 in 10.0 mi North 5.8 mph - N/A   Clear